Weather History for Tacoma Narrows, WA

Change the Weather History Date:

Wednesday, March 19, 2014

  Actual Average Record
Temperature  
Mean Temperature 46 °F -  
Max Temperature 51 °F 50 °F 62 °F (1998)
Min Temperature 41 °F 39 °F 32 °F (2012)
Degree Days  
Heating Degree Days 19    
Moisture  
Dew Point 39 °F    
Average Humidity 79    
Maximum Humidity 93    
Minimum Humidity 48    
Precipitation  
Precipitation 0.08 in - - ()
Sea Level Pressure  
Sea Level Pressure 30.11 in    
Wind  
Wind Speed 9 mph (SSW)    
Max Wind Speed 18 mph    
Max Gust Speed 29 mph    
Visibility 10 miles    
Events Rain    
Averages and records for this station are not official NWS values.
T = Trace of Precipitation, MM = Missing Value Source: NWS Daily Summary

Daily Weather History Graph

Daily Weather History Graph

Search for Another Location

Airport:

Trip Planner

Search our weather history database for the weather conditions in past years. The results will help you decide how hot, cold, wet, or windy it might be!

Date:

Astronomy

Mar. 19, 2014 Rise Set
Actual Time 7:15 AM PDT 7:21 PM PDT
Civil Twilight 6:44 AM PDT 7:52 PM PDT
Nautical Twilight 6:08 AM PDT 8:28 PM PDT
Astronomical Twilight 5:31 AM PDT 9:05 PM PDT
Moon 11:00 PM PDT (3/19) 8:31 AM PDT (3/19)
Length of Visible Light 13h 07m
Length of Day
12h 06m
Waning Gibbous, 90% of the Moon is Illuminated
Mar 19
Waning Gibbous
Mar 23
Last Quarter
Mar 30
New
Apr 7
First Quarter
Apr 15
Full

Hourly Weather History & Observations

Time (PDT) Temp. Windchill Dew Point Humidity Pressure Visibility Wind Dir Wind Speed Gust Speed Precip Events Conditions
12:05 AM 46.0 °F 43.9 °F 43.0 °F 89% 30.17 in 10.0 mi SSW 4.6 mph - N/A   Mostly Cloudy
12:53 AM 46.0 °F 43.1 °F 43.0 °F 89% 30.16 in 10.0 mi South 5.8 mph - N/A   Overcast
1:26 AM 46.0 °F 43.9 °F 43.0 °F 89% 30.15 in 10.0 mi South 4.6 mph - N/A   Overcast
1:53 AM 46.0 °F 43.9 °F 43.0 °F 89% 30.15 in 10.0 mi South 4.6 mph - N/A   Overcast
2:30 AM 46.0 °F 43.9 °F 43.0 °F 89% 30.14 in 10.0 mi SSW 4.6 mph - N/A   Overcast
2:39 AM 46.0 °F 43.9 °F 43.0 °F 89% 30.14 in 10.0 mi SW 4.6 mph - N/A   Overcast
2:53 AM 46.0 °F 42.5 °F 43.0 °F 89% 30.14 in 10.0 mi SSW 6.9 mph - N/A   Overcast
3:53 AM 45.0 °F 40.6 °F 42.1 °F 90% 30.12 in 10.0 mi South 8.1 mph - N/A   Overcast
4:53 AM 44.1 °F 38.6 °F 42.1 °F 93% 30.10 in 10.0 mi South 10.4 mph - N/A   Mostly Cloudy
5:02 AM 44.1 °F 39.0 °F 42.1 °F 93% 30.09 in 10.0 mi South 9.2 mph - N/A   Overcast
5:53 AM 44.1 °F 40.1 °F 41.0 °F 89% 30.09 in 10.0 mi SW 6.9 mph - N/A   Overcast
6:06 AM 44.1 °F 39.0 °F 41.0 °F 89% 30.08 in 10.0 mi SSW 9.2 mph - 0.00 in Rain Light Rain
6:53 AM 44.1 °F 40.8 °F 41.0 °F 89% 30.09 in 10.0 mi South 5.8 mph - 0.00 in Rain Light Rain
7:51 AM 44.6 °F 37.8 °F 41.0 °F 87% 30.07 in 10.0 mi South 15.0 mph - 0.00 in Rain Light Rain
7:53 AM 45.0 °F 38.2 °F 41.0 °F 86% 30.07 in 10.0 mi South 15.0 mph - 0.00 in Rain Light Rain
8:53 AM 45.0 °F 37.6 °F 41.0 °F 86% 30.06 in 10.0 mi South 17.3 mph 23.0 mph 0.00 in   Mostly Cloudy
9:53 AM 48.0 °F - 42.1 °F 80% 30.06 in 10.0 mi South 18.4 mph 24.2 mph N/A   Mostly Cloudy
10:53 AM 46.9 °F - 42.1 °F 83% 30.07 in 10.0 mi South 15.0 mph - 0.01 in Rain Light Rain
11:53 AM 46.0 °F 40.2 °F 43.0 °F 89% 30.07 in 6.0 mi South 12.7 mph - 0.04 in Rain Light Rain
12:53 PM 46.0 °F 41.0 °F 41.0 °F 83% 30.07 in 10.0 mi SW 10.4 mph 18.4 mph 0.03 in Rain Light Rain
1:09 PM 46.0 °F 40.6 °F 39.9 °F 79% 30.05 in 10.0 mi SSW 11.5 mph 20.7 mph 0.00 in   Overcast
1:53 PM 48.9 °F - 41.0 °F 74% 30.06 in 10.0 mi SSW 13.8 mph 23.0 mph 0.00 in   Mostly Cloudy
2:53 PM 50.0 °F - 39.9 °F 68% 30.06 in 10.0 mi SW 15.0 mph 24.2 mph 0.00 in   Scattered Clouds
3:53 PM 51.1 °F - 36.0 °F 56% 30.06 in 10.0 mi SW 15.0 mph 24.2 mph N/A   Scattered Clouds
4:53 PM 50.0 °F - 30.9 °F 48% 30.08 in 10.0 mi SW 16.1 mph 26.5 mph N/A   Scattered Clouds
5:53 PM 48.9 °F - 30.9 °F 50% 30.10 in 10.0 mi SW 16.1 mph 28.8 mph N/A   Scattered Clouds
6:53 PM 46.0 °F 39.6 °F 30.9 °F 56% 30.12 in 10.0 mi SW 15.0 mph 26.5 mph N/A   Scattered Clouds
7:53 PM 44.1 °F 38.6 °F 32.0 °F 63% 30.14 in 10.0 mi SSW 10.4 mph - N/A   Scattered Clouds
8:53 PM 43.0 °F 38.2 °F 32.0 °F 65% 30.16 in 10.0 mi SW 8.1 mph - N/A   Clear
9:53 PM 42.1 °F 35.2 °F 32.0 °F 67% 30.18 in 10.0 mi SW 12.7 mph - N/A   Clear
10:53 PM 41.0 °F 38.0 °F 32.0 °F 70% 30.21 in 10.0 mi South 4.6 mph - N/A   Clear
11:53 PM 41.0 °F 35.8 °F 32.0 °F 70% 30.22 in 10.0 mi SSW 8.1 mph - N/A   Clear